Hourly Data Report for November 27, 2021

CLYDE RIVER A
NUNAVUT
Current Station Operator: NAVCAN

70°29'09.000" N
68°31'01.000" W
26.50 m
2400804
71090
YCY

Download Data

Hourly Data (November 2021)
Hourly Data Report for November 27, 2021
TIME
LST
Temp Definition
°C
Dew Point Definition
°C
Rel Hum Definition
%
Precip. Amount Definition
mm

Wind Dir Definition
10's deg

Wind Spd Definition
km/h
Visibility Definition
km
Stn Press Definition
kPa
Hmdx Definition


Wind Chill Definition


Weather Definition


00:00 -20.7 -22.6 85 0.0 30 9 16.1 101.58   -28 LegendNANA
01:00 -19.7 -20.8 91 0.0 24 8 16.1 101.63   -26 LegendNANA
02:00 -16.6 -18.5 85 0.0 25 11 16.1 101.72   -24 LegendNANA
03:00 -15.8 -17.6 87 0.0 26 8 16.1 101.75   -21 LegendNANA
04:00 -15.6 -17.8 84 0.0 26 9 16.1 101.79   -22 LegendNANA
05:00 -16.6 -18.8 83 0.0 25 13 16.1 101.82   -24 LegendNANA
06:00 -16.8 -18.8 85 0.0 28 9 16.1 101.81   -23 LegendNANA
07:00 -18.3 -20.1 86 0.0 28 13 16.1 101.82   -26 LegendNANA
08:00 -17.6 -19.8 83 0.0 27 9 16.1 101.84   -24 LegendNANA
09:00 -17.0 -19.6 81 0.0 27 9 16.1 101.85   -23 LegendNANA
10:00 -15.9 -18.0 84 0.0 27 8 16.1 101.89   -21 LegendNANA
11:00 -13.8 -16.3 82 0.0 29 9 16.1 101.85   -19 LegendNANA
12:00 -13.6 -15.8 84 0.0 26 8 16.1 101.84   -19 LegendNANA
13:00 -12.5 -15.0 82 0.0   0 16.1 101.85     LegendNANA
14:00 -11.6 -14.2 81 0.0 32 8 16.1 101.88   -16 LegendNANA
15:00 -12.3 -14.6 84 0.0 35 9 16.1 101.89   -18 LegendNANA
16:00 -12.4 -14.5 85 0.0 34 13 16.1 101.91   -19 LegendNANA
17:00 -12.0 -14.2 84 0.0 32 11 16.1 101.92   -18 Snow
18:00 -12.1 -13.8 87 0.0 33 11 3.2 101.91   -18 Snow
19:00 -12.0 -14.0 85 0.0 32 18 16.1 101.88   -20 Snow
20:00 -12.2 -14.1 86 0.0 32 17 16.1 101.87   -20 Snow
21:00 -12.5 -14.4 86 0.0 33 15 16.1 101.87   -20 LegendNANA
22:00 -12.5 -14.4 86 0.0 32 9 16.1 101.83   -18 Snow
23:00 -12.6 -14.5 86 0.0 31 21 16.1 101.80   -21 Snow

Notes on Data Quality.

Legend

  • E = Estimated
  • M = Missing
  • NA = Not Available*
  • [empty] = Indicates an unobserved value
Date modified: